Weather History for Toledo, OH

Change the Weather History Date:

Wednesday, December 5, 2012

  Actual Average Record
Temperature  
Mean Temperature 32 °F 33 °F  
Max Temperature 41 °F 40 °F 70 °F (2001)
Min Temperature 22 °F 26 °F -2 °F (1976)
Degree Days  
Heating Degree Days 33 32  
Month to date heating degree days 80 156  
Since 1 July heating degree days 1417 1389  
Cooling Degree Days 0 0  
Month to date cooling degree days 0 0  
Year to date cooling degree days 998 793  
Moisture  
Dew Point 22 °F    
Average Humidity 65    
Maximum Humidity 82    
Minimum Humidity 48    
Precipitation  
Precipitation 0.00 in 0.09 in 0.74 in (2011)
Month to date precipitation 0.18 0.46  
Year to date precipitation 28.37 32.02  
Snow  
Snow 0.00 in 0.10 in - ()
Month to date snowfall 0.0 0.8  
Since 1 July snowfall T 2.9  
Snow Depth 0.00 in    
Sea Level Pressure  
Sea Level Pressure 30.35 in    
Wind  
Wind Speed 7 mph (NNW)    
Max Wind Speed 17 mph    
Max Gust Speed 24 mph    
Visibility 10 miles    
Events      
T = Trace of Precipitation, MM = Missing Value Source: NWS Daily Summary

Daily Weather History Graph

Daily Weather History Graph

Search for Another Location

Airport:

Trip Planner

Search our weather history database for the weather conditions in past years. The results will help you decide how hot, cold, wet, or windy it might be!

Date:

Astronomy

Dec. 05, 2012 Rise Set
Actual Time 7:46 AM EST 5:05 PM EST
Civil Twilight 7:15 AM EST 5:36 PM EST
Nautical Twilight 6:41 AM EST 6:10 PM EST
Astronomical Twilight 6:07 AM EST 6:44 PM EST
Moon 11:57 PM EST (12/5) 12:06 PM EST (12/5)
Length of Visible Light 10h 20m
Length of Day
9h 18m
Waning Gibbous, 60% of the Moon is Illuminated
Dec 5
Waning Gibbous
Dec 6
Last Quarter
Dec 13
New
Dec 20
First Quarter
Dec 28
Full

Hourly Weather History & Observations

Time (EST) Temp. Windchill Dew Point Humidity Pressure Visibility Wind Dir Wind Speed Gust Speed Precip Events Conditions
12:52 AM 37.9 °F 32.1 °F 32.0 °F 79% 30.17 in 10.0 mi West 8.1 mph - N/A   Clear
1:52 AM 37.9 °F 31.5 °F 32.0 °F 79% 30.19 in 10.0 mi West 9.2 mph - N/A   Clear
2:52 AM 37.0 °F 30.4 °F 28.9 °F 73% 30.22 in 10.0 mi WNW 9.2 mph - N/A   Clear
3:52 AM 35.1 °F 27.9 °F 28.0 °F 76% 30.25 in 10.0 mi NW 9.2 mph - N/A   Clear
4:52 AM 35.1 °F 26.9 °F 27.0 °F 72% 30.27 in 10.0 mi NW 11.5 mph - N/A   Clear
5:52 AM 34.0 °F 25.5 °F 26.1 °F 73% 30.29 in 10.0 mi NW 11.5 mph - N/A   Clear
6:52 AM 32.0 °F 22.5 °F 23.0 °F 69% 30.32 in 10.0 mi NNW 12.7 mph - N/A   Clear
7:52 AM 30.0 °F 20.0 °F 21.0 °F 69% 30.35 in 10.0 mi NNW 12.7 mph - N/A   Clear
9:52 AM 30.9 °F 20.2 °F 19.0 °F 61% 30.42 in 10.0 mi North 15.0 mph 24.2 mph N/A   Clear
10:52 AM 33.1 °F 25.5 °F 19.0 °F 56% 30.43 in 10.0 mi North 9.2 mph - N/A   Clear
11:52 AM 35.1 °F 27.9 °F 19.0 °F 52% 30.41 in 10.0 mi North 9.2 mph 19.6 mph N/A   Clear
12:52 PM 36.0 °F 29.6 °F 19.0 °F 50% 30.39 in 10.0 mi North 8.1 mph 16.1 mph N/A   Clear
1:52 PM 37.0 °F 29.8 °F 19.9 °F 50% 30.39 in 10.0 mi North 10.4 mph - N/A   Clear
2:52 PM 37.0 °F 34.5 °F 19.0 °F 48% 30.39 in 10.0 mi NE 3.5 mph - N/A   Clear
3:52 PM 37.0 °F 34.5 °F 19.9 °F 50% 30.40 in 10.0 mi NE 3.5 mph - N/A   Clear
4:52 PM 36.0 °F 33.3 °F 19.0 °F 50% 30.40 in 10.0 mi NE 3.5 mph - N/A   Clear
5:52 PM 30.9 °F - 19.0 °F 61% 30.41 in 10.0 mi Calm Calm - N/A   Clear
6:52 PM 30.0 °F - 19.9 °F 66% 30.40 in 10.0 mi Calm Calm - N/A   Clear
7:52 PM 28.0 °F - 19.9 °F 72% 30.41 in 10.0 mi Calm Calm - N/A   Clear
8:52 PM 25.0 °F - 19.9 °F 81% 30.40 in 10.0 mi Calm Calm - N/A   Clear
9:52 PM 25.0 °F - 19.9 °F 81% 30.40 in 10.0 mi Calm Calm - N/A   Clear
10:52 PM 25.0 °F - 19.9 °F 81% 30.40 in 10.0 mi Calm Calm - N/A   Clear
11:52 PM 21.9 °F - 19.0 °F 89% 30.38 in 10.0 mi Calm Calm - N/A   Clear